Regional Weather Roundup
Issued by NWS

Home | Current Version | Previous Version | Graphics & Text | Print | Product List | Glossary On
Versions: 1 2 3 4 5 6 7 8 9 10 11 12 13 14 15 16 17 18 19 20 21 22 23 24 25 26 27 28 29 30 31 32 33 34 35 36 37 38 39 40 41 42 43 44 45 46 47 48 49 50
000
ASUS45 KSLC 300310
RWRUT

UTAH REGIONAL WEATHER ROUNDUP
NATIONAL WEATHER SERVICE SALT LAKE CITY UT
900 PM MDT FRI AUG 29 2014

UTZ001>011-023>025-300400-

NORTHERN UTAH

CITY           SKY/WX    TMP DP  RH WIND       PRES   REMARKS
HILL AFB       PTCLDY    74  44  33 E8        30.00S
LOGAN          CLEAR     74  50  42 S7        29.97S
OGDEN          PTCLDY    76  46  34 S8        29.96S
PROVO AIRPORT  NOT AVBL
SALT LAKE CITY MOCLDY    77  42  28 SE9       29.95S
VERNAL         MOCLDY    69  42  37 N10G16    30.13R
WENDOVER       MOCLDY    79  39  24 W6        29.92S
HEBER CITY     PTCLDY    63  43  48 CALM      30.11R
WEST JORDAN    CLEAR     75  52  43 SW9       30.00S

$$

UTZ012>022-026-027-300400-

SOUTHERN UTAH

CITY           SKY/WX    TMP DP  RH WIND       PRES   REMARKS
BRYCE CANYON   CLOUDY    59  45  59 CALM      30.27R
CEDAR CITY     CLOUDY    73  36  25 SW8       30.09R
MILFORD        MOCLDY    80  37  21 S12       30.01R
MOAB/CYNLANDS  CLEAR     78  36  21 NE8       30.03R
PRICE          PTCLDY    70  38  31 N9        30.14R
ST GEORGE      PTCLDY    91  37  15 W7        29.89R

$$

REGIONAL REPORTS     COLORADO/ARIZONA

CITY           SKY/WX    TMP DP  RH WIND       PRES   REMARKS
CRAIG, CO      PTCLDY    60  49  66 NW3       30.17R
GRAND JUNCTION PTCLDY    68  47  46 NE3       30.07R
RIFLE          PTCLDY    66  50  56 S9        30.13R
MONTROSE       CLEAR     66  50  56 SE6       30.17R
CORTEZ         CLEAR     63  46  54 E5        30.15R
PAGE, AZ       MOCLDY    83  34  17 CALM      30.00S
GRAND CANYON     N/A    N/A N/A N/A MISG        N/A
KINGMAN        PTCLDY    81  35  19 S9        29.94R
FLAGSTAFF      CLEAR     60  44  55 CALM      30.26R

$$

REGIONAL REPORTS    NEVADA/IDAHO/WYOMING

CITY           SKY/WX    TMP DP  RH WIND       PRES   REMARKS
LAS VEGAS, NV  PTCLDY    99  32   9 S9        29.76R HX  93
ELY            MOCLDY    70  32  24 S12       30.10R
ELKO           CLOUDY    78  31  17 SW7       29.98R
POCATELLO, ID  CLEAR     70  42  36 S6        29.96R
BURLEY         CLOUDY    76  43  30 N3        29.90S
EVANSTON, WY   MOCLDY    64  40  41 SW6       30.20R
ROCK SPRINGS   NOT AVBL

$$


USA.gov is the U.S. government's official web portal to all federal, state and local government web resources and services.